Location: U-46 Planetarium
(42.0300°N, 88.2740°W)
Time: 09:50:55
(UTC-05:00)

Cosmos 1417 Rocket - Pass Details

Date: 16 December 2017
Orbit: 951 x 1000 km, 83.0° (Epoch: 21 July)

Event Time Altitude Azimuth Distance (km) Brightness Sun altitude
Rises 18:39:55 0° 184° (S) 3,616 7.7 -24.5°
Reaches altitude 10° 18:42:23 10° 183° (S) 2,679 6.9 -25.0°
Maximum altitude 18:48:31 85° 97° (E) 973 4.3 -26.1°
Enters shadow 18:51:52 29° 10° (N) 1,685 5.5 -26.7°
